Regional Weather Roundup
Issued by NWS

Home | Current Version | Previous Version | Text Only | Print | Product List | Glossary Off
Versions: 1 2 3 4 5 6 7 8 9 10 11 12 13 14 15 16 17 18 19 20 21 22 23 24 25 26 27 28 29 30 31 32 33 34 35 36 37 38 39 40 41 42 43 44 45 46 47 48 49 50

000
ASUS45 KSLC 190910
RWRUT

UTAH REGIONAL WEATHER ROUNDUP
NATIONAL WEATHER SERVICE SALT LAKE CITY UT
300 AM MDT TUE AUG 19 2014

UTZ001>011-023>025-191000-

NORTHERN UTAH

CITY           SKY/WX    TMP DP  RH WIND       PRES   REMARKS
HILL AFB       CLOUDY    76  46  34 W2        29.96S
LOGAN          CLEAR     77  44  30 S8        29.93S
OGDEN          CLOUDY    73  46  38 NW7       29.93F
PROVO AIRPORT  CLOUDY    73  48  40 SE7       30.01R
SALT LAKE CITY CLOUDY    80  43  26 S16       29.90S
VERNAL         MOCLDY    70  39  32 W5        29.97R
WENDOVER       CLOUDY    81  43  26 SW14G20   29.90S
HEBER CITY     CLOUDY    72  39  30 CALM      30.03S
WEST JORDAN    CLEAR     79  52  38 SE16G25   29.95R

$$

UTZ012>022-026-027-191000-

SOUTHERN UTAH

CITY           SKY/WX    TMP DP  RH WIND       PRES   REMARKS
BRYCE CANYON   MOCLDY    50  49  96 W5        30.22F
CEDAR CITY     MOCLDY    58  53  84 CALM      30.05F
MILFORD        CLOUDY    64  56  75 N8        30.04S
MOAB/CYNLANDS  MOCLDY    77  44  30 SW23G31   29.98R
PRICE          CLOUDY    73  40  30 S10       30.10R
ST GEORGE      CLOUDY    72  57  60 E7        29.91F
KANAB            N/A     63  52  67 CALM      30.08F

$$

REGIONAL REPORTS     COLORADO/ARIZONA

CITY           SKY/WX    TMP DP  RH WIND       PRES   REMARKS
CRAIG, CO      PTCLDY    60  41  49 E10       30.05R
GRAND JUNCTION CLOUDY    74  42  31 NW13      29.98R
RIFLE          MOCLDY    62  43  49 CALM      30.05R
MONTROSE       CLOUDY    74  43  32 CALM      30.09R
CORTEZ         MOCLDY    65  53  65 E13       30.12F
PAGE, AZ       CLOUDY    76  52  43 CALM      29.99F
GRAND CANYON     N/A    N/A N/A N/A MISG      30.16F
KINGMAN        LGT RAIN  70  64  81 SW5       29.96F
FLAGSTAFF      MOCLDY    55  52  89 SW7       30.20F

$$

REGIONAL REPORTS    NEVADA/IDAHO/WYOMING

CITY           SKY/WX    TMP DP  RH WIND       PRES   REMARKS
LAS VEGAS, NV  MOCLDY    88  55  32 S16G25    29.76S
ELY            LGT RAIN  58  53  84 S16       30.11S
ELKO           MOCLDY    67  38  34 E6        29.92F
POCATELLO, ID  CLEAR     55  49  80 N5        29.91S
BURLEY         CLOUDY    63  49  60 VRB5      29.88R
EVANSTON, WY   MOCLDY    63  32  31 SW7       30.12S
ROCK SPRINGS   MOCLDY    61  32  33 SE6       30.07F

$$


USA.gov is the U.S. government's official web portal to all federal, state and local government web resources and services.